When you browse on this site, cookies collect data to enhance your experience and personalize the content and advertising you see.
Visit our Privacy Policy to learn more. By continuing to use the site, you agree to this use of cookies and data.

Hourly Weather Adelaide

Today, 10 August, Monday

Time Temperature Precipitation Wind Pressure Humidity
00:00 +10°C° 0 mm 1 mps 761 mmHg 89%
01:00 +9°C° 0 mm 1 mps 761 mmHg 89%
02:00 +9°C° 0 mm 1 mps 761 mmHg 89%
03:00 +9°C° 0 mm 1 mps 761 mmHg 88%
04:00 +8°C° 0 mm 1 mps 761 mmHg 88%
05:00 +8°C° 0 mm 1 mps 761 mmHg 88%
06:00 +7°C° 0 mm 2 mps 761 mmHg 87%
07:00 +9°C° 0 mm 2 mps 761 mmHg 83%
08:00 +10°C° 0 mm 2 mps 761 mmHg 78%
09:00 +12°C° 0 mm 3 mps 761 mmHg 71%
10:00 +13°C° 0 mm 3 mps 761 mmHg 67%
11:00 +14°C° 0 mm 3 mps 760 mmHg 64%
12:00 +16°C° 0 mm 3 mps 759 mmHg 61%
13:00 +16°C° 0 mm 2 mps 759 mmHg 62%
14:00 +16°C° 0 mm 2 mps 759 mmHg 63%
15:00 +17°C° 0 mm 2 mps 758 mmHg 64%
16:00 +16°C° 0 mm 3 mps 758 mmHg 66%
17:00 +14°C° 0 mm 3 mps 757 mmHg 68%
18:00 +13°C° 0 mm 3 mps 757 mmHg 70%
19:00 +13°C° 0 mm 4 mps 757 mmHg 67%
20:00 +13°C° 0 mm 4 mps 757 mmHg 65%
21:00 +13°C° 0 mm 5 mps 757 mmHg 63%
22:00 +13°C° 0 mm 5 mps 757 mmHg 61%
23:00 +13°C° 0 mm 5 mps 757 mmHg 60%

Tomorrow, 11 August, Tuesday

Time Temperature Precipitation Wind Pressure Humidity
00:00 +13°C° 0 mm 5 mps 756 mmHg 58%
01:00 +13°C° 0 mm 5 mps 756 mmHg 60%
02:00 +12°C° 0 mm 5 mps 755 mmHg 61%
03:00 +11°C° 0 mm 6 mps 755 mmHg 62%
04:00 +11°C° 0 mm 6 mps 755 mmHg 62%
05:00 +11°C° 0 mm 6 mps 754 mmHg 62%
06:00 +11°C° 0 mm 7 mps 754 mmHg 62%
07:00 +11°C° 0.9 mm 7 mps 754 mmHg 69%
08:00 +10°C° 0.9 mm 7 mps 754 mmHg 77%
09:00 +10°C° 0.9 mm 7 mps 753 mmHg 85%
10:00 +10°C° 0.6 mm 7 mps 753 mmHg 85%
11:00 +10°C° 0.6 mm 7 mps 753 mmHg 85%
12:00 +11°C° 0.6 mm 7 mps 752 mmHg 85%
13:00 +11°C° 0.1 mm 7 mps 752 mmHg 84%
14:00 +11°C° 0.1 mm 6 mps 751 mmHg 83%
15:00 +13°C° 0.1 mm 6 mps 751 mmHg 81%
16:00 +13°C° 0.1 mm 6 mps 751 mmHg 82%
17:00 +12°C° 0.1 mm 5 mps 751 mmHg 83%
18:00 +12°C° 0.1 mm 5 mps 751 mmHg 83%
19:00 +12°C° 0 mm 5 mps 751 mmHg 82%
20:00 +12°C° 0 mm 5 mps 751 mmHg 80%
21:00 +11°C° 0 mm 6 mps 751 mmHg 78%
22:00 +12°C° 0 mm 5 mps 751 mmHg 76%
23:00 +12°C° 0 mm 5 mps 750 mmHg 75%

Day after tomorrow, 12 August, Wednesday

Time Temperature Precipitation Wind Pressure Humidity
00:00 +12°C° 0 mm 5 mps 750 mmHg 73%
01:00 +12°C° 0.3 mm 5 mps 750 mmHg 76%
02:00 +12°C° 0.3 mm 5 mps 749 mmHg 79%
03:00 +12°C° 0.3 mm 5 mps 749 mmHg 82%
04:00 +12°C° 0.1 mm 5 mps 749 mmHg 84%
05:00 +12°C° 0.1 mm 5 mps 749 mmHg 87%
06:00 +12°C° 0.1 mm 5 mps 749 mmHg 90%
07:00 +11°C° 0 mm 6 mps 749 mmHg 87%
08:00 +13°C° 0 mm 6 mps 750 mmHg 83%
09:00 +14°C° 0 mm 7 mps 750 mmHg 80%
10:00 +14°C° 0.5 mm 7 mps 750 mmHg 83%
11:00 +12°C° 0.5 mm 7 mps 749 mmHg 86%
12:00 +13°C° 0.5 mm 6 mps 749 mmHg 89%
13:00 +13°C° 0.3 mm 6 mps 749 mmHg 88%
14:00 +14°C° 0.3 mm 6 mps 749 mmHg 86%
15:00 +14°C° 0.3 mm 6 mps 749 mmHg 85%
16:00 +14°C° 0.2 mm 5 mps 749 mmHg 86%
17:00 +13°C° 0.2 mm 5 mps 750 mmHg 87%
18:00 +13°C° 0.2 mm 5 mps 750 mmHg 88%
19:00 +13°C° 0 mm 5 mps 751 mmHg 89%
20:00 +13°C° 0 mm 5 mps 751 mmHg 89%
21:00 +12°C° 0 mm 5 mps 751 mmHg 90%
22:00 +12°C° 0 mm 5 mps 751 mmHg 91%
23:00 +12°C° 0 mm 5 mps 751 mmHg 92%

13 August, Thursday

Time Temperature Precipitation Wind Pressure Humidity
00:00 +12°C° 0 mm 5 mps 752 mmHg 92%
01:00 +12°C° 0 mm 5 mps 751 mmHg 93%
02:00 +12°C° 0 mm 5 mps 751 mmHg 94%
03:00 +12°C° 0 mm 5 mps 751 mmHg 95%
04:00 +12°C° 0 mm 5 mps 752 mmHg 94%
05:00 +12°C° 0 mm 5 mps 752 mmHg 94%
06:00 +12°C° 0 mm 5 mps 752 mmHg 94%
07:00 +12°C° 0.1 mm 5 mps 752 mmHg 93%
08:00 +12°C° 0.1 mm 5 mps 753 mmHg 92%
09:00 +12°C° 0.1 mm 5 mps 753 mmHg 92%
10:00 +13°C° 0.2 mm 5 mps 753 mmHg 88%
11:00 +13°C° 0.2 mm 6 mps 753 mmHg 85%
12:00 +14°C° 0.2 mm 6 mps 753 mmHg 81%
13:00 +14°C° 0.4 mm 6 mps 752 mmHg 80%
14:00 +14°C° 0.4 mm 6 mps 752 mmHg 79%
15:00 +14°C° 0.4 mm 5 mps 751 mmHg 77%
16:00 +14°C° 0.4 mm 5 mps 752 mmHg 80%
17:00 +13°C° 0.4 mm 5 mps 752 mmHg 83%
18:00 +13°C° 0.4 mm 5 mps 752 mmHg 86%
19:00 +12°C° 0.4 mm 5 mps 753 mmHg 87%
20:00 +12°C° 0.4 mm 4 mps 753 mmHg 88%
21:00 +12°C° 0.4 mm 4 mps 753 mmHg 89%
22:00 +12°C° 0.3 mm 4 mps 753 mmHg 90%
23:00 +11°C° 0.3 mm 4 mps 753 mmHg 91%

14 August, Friday

Time Temperature Precipitation Wind Pressure Humidity
00:00 +10°C° 0.3 mm 5 mps 753 mmHg 91%
01:00 +10°C° 0.1 mm 5 mps 753 mmHg 92%
02:00 +10°C° 0.1 mm 5 mps 752 mmHg 92%
03:00 +11°C° 0.1 mm 4 mps 752 mmHg 92%
04:00 +10°C° 0 mm 4 mps 752 mmHg 92%
05:00 +10°C° 0 mm 4 mps 753 mmHg 92%
06:00 +10°C° 0 mm 4 mps 753 mmHg 92%
07:00 +10°C° 0 mm 5 mps 753 mmHg 91%
08:00 +10°C° 0 mm 5 mps 754 mmHg 90%
09:00 +11°C° 0 mm 6 mps 754 mmHg 89%
10:00 +11°C° 0 mm 6 mps 754 mmHg 86%
11:00 +13°C° 0 mm 6 mps 754 mmHg 82%
12:00 +14°C° 0 mm 7 mps 754 mmHg 79%
13:00 +14°C° 0.1 mm 6 mps 753 mmHg 78%
14:00 +14°C° 0.1 mm 5 mps 753 mmHg 77%
15:00 +14°C° 0.1 mm 5 mps 753 mmHg 76%
16:00 +13°C° 0.1 mm 4 mps 753 mmHg 80%
17:00 +13°C° 0.1 mm 3 mps 754 mmHg 84%
18:00 +12°C° 0.1 mm 3 mps 754 mmHg 88%
19:00 +12°C° 0.1 mm 2 mps 754 mmHg 89%
20:00 +12°C° 0.1 mm 2 mps 754 mmHg 91%
21:00 +12°C° 0.1 mm 2 mps 755 mmHg 92%
22:00 +12°C° 0 mm 2 mps 755 mmHg 93%
23:00 +12°C° 0 mm 2 mps 755 mmHg 94%

15 August, Saturday

Time Temperature Precipitation Wind Pressure Humidity
00:00 +10°C° 0 mm 2 mps 755 mmHg 95%
01:00 +11°C° 0.1 mm 3 mps 755 mmHg 94%
02:00 +11°C° 0.1 mm 3 mps 755 mmHg 94%
03:00 +11°C° 0.1 mm 3 mps 755 mmHg 93%
04:00 +10°C° 0 mm 2 mps 756 mmHg 92%
05:00 +10°C° 0 mm 2 mps 756 mmHg 91%
06:00 +9°C° 0 mm 2 mps 756 mmHg 90%
07:00 +10°C° 0 mm 2 mps 757 mmHg 87%
08:00 +12°C° 0 mm 2 mps 757 mmHg 83%
09:00 +13°C° 0 mm 2 mps 757 mmHg 80%
10:00 +13°C° 0.2 mm 3 mps 757 mmHg 77%
11:00 +13°C° 0.2 mm 3 mps 757 mmHg 74%
12:00 +14°C° 0.2 mm 4 mps 757 mmHg 71%
13:00 +14°C° 0.1 mm 4 mps 757 mmHg 70%
14:00 +13°C° 0.1 mm 4 mps 757 mmHg 70%
15:00 +13°C° 0.1 mm 4 mps 757 mmHg 69%
16:00 +12°C° 0 mm 4 mps 757 mmHg 75%
17:00 +11°C° 0 mm 4 mps 758 mmHg 81%
18:00 +10°C° 0 mm 4 mps 758 mmHg 87%
19:00 +10°C° 0 mm 3 mps 758 mmHg 87%
20:00 +10°C° 0 mm 3 mps 759 mmHg 88%
21:00 +10°C° 0 mm 3 mps 759 mmHg 89%
22:00 +9°C° 0 mm 3 mps 759 mmHg 89%
23:00 +9°C° 0 mm 2 mps 759 mmHg 89%
Show more